Flag for Brazil Weather past 2 weeks in Itumbiara, Goiás, Brazil

Now
79 °F

Sunny.


Feels Like: 79 °F
Forecast: 64 / 87 °F
Wind: 14 mph from Northeast

Location: Uberlandia Airport

Current Time: Jul 22, 2014 at 5:59:03 PM

Latest Report: Jul 22, 2014 at 2:00 PM


Visibility: 10 mi

Pressure: 30.18 "Hg

Humidity: 32%

Dew point: 46 °F

Location of ItumbiaraLocation

Historic Weather in Itumbiara — Graph

°F

Itumbiara temperature yesterday

Maximum temperature yesterday: 81 °F (at 3:00 PM)
Minimum temperature yesterday: 59 °F (at 7:00 AM)
Average temperature yesterday: 69 °F

Past Weeks' High & Low Weather Summary

 TemperatureHumidityPressure
High81 °F (Jul 21, 3:00 PM)94% (Jul 11, 3:00 AM)30.33 "Hg (Jul 11, 3:00 AM)
Low54 °F (Jul 15, 7:00 AM)21% (Jul 20, 2:00 PM)30.12 "Hg (Jul 9, 3:00 PM)
Average67 °F55%30.22 "Hg
* Reported Jul 7 1:00 PM — Jul 22 1:00 PM, Itumbiara, Weather by CustomWeather, © 2014

Note: Actual official high and low records may vary slightly from our data, if they occured in-between our weather recording intervals... More about our weather records

Advertising

Itumbiara weather history for previous 24 hours

 ConditionsComfort  
Time TempWeatherWind HumidityBarometerVisibility
1:00 PM
Jul 22
77 °FSunny.16 mph36%30.21 "Hg10 mi
12:00 PM75 °FSunny.17 mph39%30.24 "Hg10 mi
11:00 AM73 °FSunny.16 mph44%30.27 "Hg10 mi
10:00 AM70 °FSunny.17 mph53%30.27 "Hg10 mi
9:00 AM66 °FSunny.17 mph60%30.27 "Hg10 mi
8:00 AM63 °FSunny.14 mph68%30.24 "Hg10 mi
7:00 AM61 °FSunny.13 mph72%30.21 "Hg10 mi
6:00 AM63 °FClear.10 mph68%30.18 "Hg10 mi
5:00 AM63 °FClear.10 mph68%30.18 "Hg10 mi
4:00 AM63 °FClear.12 mph68%30.18 "Hg10 mi
3:00 AM64 °FClear.13 mph60%30.18 "Hg10 mi
2:00 AM64 °FClear.12 mph60%30.18 "Hg10 mi
1:00 AM64 °FClear.9 mph56%30.18 "Hg10 mi
12:00 AM66 °FClear.10 mph52%30.21 "Hg10 mi
11:00 PM
Jul 21
68 °FClear.7 mph46%30.21 "Hg10 mi
10:00 PM68 °FClear.7 mph46%30.18 "Hg10 mi
9:00 PM70 °FClear.5 mph40%30.18 "Hg10 mi
8:00 PM72 °FClear.6 mph36%30.18 "Hg10 mi
7:00 PM72 °FClear.5 mph36%30.15 "Hg10 mi
6:00 PM75 °FClear.5 mph31%30.15 "Hg10 mi
5:00 PM79 °FSunny.6 mph28%30.15 "Hg10 mi
Weather by CustomWeather, © 2014

See weather overviewHow to use our weather pages